Location: Arezzo
(43.4170°N, 11.8830°E)
Time: 01:01:17
(UTC+01:00)

STARLINK-2711 - Pass Details

Date: 29 October 2021
Orbit: 545 x 549 km, 53.1° (Epoch: 28 November)

Event Time Altitude Azimuth Distance (km) Brightness Sun altitude
Exits shadow 04:28:43 13° 86° (E) 1,630 6.7 -35.7°
Drops below altitude 10° 04:29:24 10° 80° (E) 1,829 7.0 -35.6°
Sets 04:31:58 0° 65° (ENE) 2,714 8.2 -35.2°
